TimeCDT,TemperatureF,Dew PointF,Humidity,Sea Level PressureIn,VisibilityMPH,Wind Direction,Wind SpeedMPH,Gust SpeedMPH,PrecipitationIn,Events,Conditions,WindDirDegrees,DateUTC
12:15 AM,29.5,16.7,59,30.31,10.0,North,4.6,-,N/A,,Clear,350,2013-04-03 05:15:00
12:35 AM,30.0,16.5,57,30.31,10.0,North,3.5,-,N/A,,Clear,360,2013-04-03 05:35:00
12:55 AM,29.8,16.7,58,30.31,10.0,North,3.5,-,N/A,,Clear,350,2013-04-03 05:55:00
1:15 AM,29.8,16.5,58,30.32,10.0,Calm,Calm,-,N/A,,Clear,0,2013-04-03 06:15:00
1:35 AM,28.4,17.6,64,30.32,10.0,Calm,Calm,-,N/A,,Clear,0,2013-04-03 06:35:00
1:55 AM,24.3,17.1,74,30.32,10.0,Calm,Calm,-,N/A,,Clear,0,2013-04-03 06:55:00
2:15 AM,27.1,17.6,67,30.32,10.0,Calm,Calm,-,N/A,,Clear,0,2013-04-03 07:15:00
2:35 AM,27.1,17.1,66,30.33,10.0,Calm,Calm,-,N/A,,Clear,0,2013-04-03 07:35:00
2:55 AM,22.8,16.0,75,30.34,10.0,Calm,Calm,-,N/A,,Clear,0,2013-04-03 07:55:00
3:15 AM,25.5,17.2,71,30.34,10.0,Calm,Calm,-,N/A,,Clear,0,2013-04-03 08:15:00
3:35 AM,21.6,17.2,83,30.34,10.0,Calm,Calm,-,N/A,,Clear,0,2013-04-03 08:35:00
3:55 AM,19.8,14.0,78,30.34,10.0,Calm,Calm,-,N/A,,Clear,0,2013-04-03 08:55:00
4:15 AM,21.9,16.0,78,30.34,10.0,North,3.5,-,N/A,,Clear,360,2013-04-03 09:15:00
4:35 AM,25.3,17.4,72,30.35,10.0,North,3.5,-,N/A,,Clear,350,2013-04-03 09:35:00
4:55 AM,25.0,17.2,72,30.36,10.0,Calm,Calm,-,N/A,,Clear,0,2013-04-03 09:55:00
5:15 AM,22.3,18.3,85,30.37,10.0,Calm,Calm,-,N/A,,Clear,0,2013-04-03 10:15:00
5:35 AM,22.5,17.4,81,30.38,10.0,Calm,Calm,-,N/A,,Clear,0,2013-04-03 10:35:00
5:55 AM,21.6,18.1,87,30.40,10.0,Calm,Calm,-,N/A,,Clear,0,2013-04-03 10:55:00
6:15 AM,20.7,16.0,82,30.39,10.0,Calm,Calm,-,N/A,,Clear,0,2013-04-03 11:15:00
6:35 AM,22.5,16.9,79,30.39,10.0,North,3.5,-,N/A,,Clear,350,2013-04-03 11:35:00
6:55 AM,25.0,16.9,71,30.39,10.0,North,3.5,-,N/A,,Clear,10,2013-04-03 11:55:00
7:15 AM,26.2,17.6,70,30.39,10.0,North,3.5,-,N/A,,Clear,10,2013-04-03 12:15:00
7:35 AM,28.6,18.0,64,30.40,10.0,North,4.6,-,N/A,,Clear,10,2013-04-03 12:35:00
7:55 AM,30.2,18.3,61,30.41,10.0,NNE,5.8,-,N/A,,Clear,20,2013-04-03 12:55:00
8:15 AM,31.1,18.1,59,30.42,10.0,North,5.8,-,N/A,,Clear,10,2013-04-03 13:15:00
8:35 AM,32.5,18.7,57,30.43,10.0,NE,4.6,-,N/A,,Clear,40,2013-04-03 13:35:00
8:55 AM,34.3,19.4,54,30.43,10.0,NE,8.1,-,N/A,,Clear,50,2013-04-03 13:55:00
9:15 AM,35.6,18.3,50,30.43,10.0,East,5.8,-,N/A,,Clear,80,2013-04-03 14:15:00
9:35 AM,37.0,18.3,47,30.43,10.0,East,5.8,-,N/A,,Clear,100,2013-04-03 14:35:00
9:55 AM,38.3,17.8,44,30.43,10.0,East,6.9,-,N/A,,Clear,80,2013-04-03 14:55:00
10:15 AM,38.7,13.5,36,30.44,10.0,ENE,4.6,-,N/A,,Clear,60,2013-04-03 15:15:00
10:35 AM,39.9,12.6,33,30.44,10.0,ESE,5.8,-,N/A,,Clear,110,2013-04-03 15:35:00
10:55 AM,40.3,13.3,33,30.44,10.0,ESE,3.5,-,N/A,,Clear,120,2013-04-03 15:55:00
11:15 AM,39.9,13.3,34,30.44,10.0,ENE,6.9,-,N/A,,Clear,60,2013-04-03 16:15:00
11:35 AM,41.4,13.1,32,30.44,10.0,Calm,Calm,-,N/A,,Clear,0,2013-04-03 16:35:00
11:55 AM,41.2,12.2,31,30.44,10.0,East,4.6,-,N/A,,Clear,100,2013-04-03 16:55:00
12:15 PM,42.3,12.9,30,30.44,10.0,East,5.8,-,N/A,,Clear,80,2013-04-03 17:15:00
12:35 PM,42.6,12.0,29,30.43,10.0,Calm,Calm,-,N/A,,Clear,0,2013-04-03 17:35:00
12:55 PM,44.8,14.0,29,30.42,10.0,East,3.5,-,N/A,,Clear,80,2013-04-03 17:55:00
1:15 PM,43.5,14.2,31,30.41,10.0,North,4.6,-,N/A,,Clear,350,2013-04-03 18:15:00
1:35 PM,44.8,15.8,31,30.39,10.0,Calm,Calm,-,N/A,,Clear,0,2013-04-03 18:35:00
1:55 PM,45.5,16.7,32,30.39,10.0,ESE,9.2,16.1,N/A,,Clear,110,2013-04-03 18:55:00
2:15 PM,45.7,17.8,33,30.37,10.0,NE,10.4,-,N/A,,Clear,40,2013-04-03 19:15:00
2:35 PM,46.6,16.0,29,30.37,10.0,East,9.2,-,N/A,,Clear,80,2013-04-03 19:35:00
2:55 PM,45.9,14.4,28,30.36,10.0,ENE,8.1,-,N/A,,Clear,70,2013-04-03 19:55:00
3:15 PM,46.2,14.9,28,30.37,10.0,East,6.9,-,N/A,,Clear,80,2013-04-03 20:15:00
3:35 PM,46.4,15.1,28,30.36,10.0,East,9.2,16.1,N/A,,Clear,80,2013-04-03 20:35:00
3:55 PM,46.0,13.6,27,30.36,10.0,East,6.9,-,N/A,,Clear,80,2013-04-03 20:55:00
4:15 PM,45.3,14.0,28,30.36,10.0,ENE,6.9,-,N/A,,Clear,60,2013-04-03 21:15:00
4:35 PM,45.0,14.0,29,30.36,10.0,East,11.5,-,N/A,,Clear,100,2013-04-03 21:35:00
4:55 PM,45.3,13.5,28,30.36,10.0,ENE,8.1,-,N/A,,Clear,60,2013-04-03 21:55:00
5:15 PM,44.4,10.2,25,30.36,10.0,ESE,8.1,-,N/A,,Clear,110,2013-04-03 22:15:00
5:35 PM,43.9,8.2,23,30.36,10.0,East,10.4,-,N/A,,Clear,90,2013-04-03 22:35:00
5:55 PM,43.2,8.1,24,30.35,10.0,ESE,8.1,-,N/A,,Clear,110,2013-04-03 22:55:00
6:15 PM,42.4,9.9,26,30.35,10.0,East,9.2,-,N/A,,Clear,100,2013-04-03 23:15:00
6:35 PM,40.6,10.6,29,30.36,10.0,East,8.1,-,N/A,,Clear,80,2013-04-03 23:35:00
6:55 PM,38.7,10.2,31,30.35,10.0,East,6.9,-,N/A,,Clear,80,2013-04-03 23:55:00
7:15 PM,37.8,10.0,32,30.36,10.0,ENE,8.1,-,N/A,,Clear,60,2013-04-04 00:15:00
7:35 PM,35.6,11.1,36,30.35,10.0,ENE,9.2,-,N/A,,Clear,60,2013-04-04 00:35:00
7:55 PM,34.9,11.5,38,30.34,10.0,ENE,6.9,-,N/A,,Clear,70,2013-04-04 00:55:00
8:15 PM,34.7,12.0,39,30.35,10.0,East,5.8,-,N/A,,Clear,80,2013-04-04 01:15:00
8:35 PM,33.8,10.6,38,30.34,10.0,ENE,6.9,-,N/A,,Clear,70,2013-04-04 01:35:00
8:55 PM,33.1,10.4,39,30.34,10.0,ENE,6.9,-,N/A,,Clear,70,2013-04-04 01:55:00
9:15 PM,33.1,11.7,41,30.34,10.0,East,5.8,-,N/A,,Clear,80,2013-04-04 02:15:00
9:35 PM,32.9,10.2,39,30.34,10.0,East,4.6,-,N/A,,Clear,80,2013-04-04 02:35:00
9:55 PM,32.9,10.8,40,30.33,10.0,East,6.9,-,N/A,,Clear,80,2013-04-04 02:55:00
10:15 PM,32.0,11.7,43,30.33,10.0,Calm,Calm,-,N/A,,Clear,0,2013-04-04 03:15:00
10:35 PM,30.9,12.6,47,30.33,10.0,ESE,3.5,-,N/A,,Clear,110,2013-04-04 03:35:00
10:55 PM,29.8,12.9,49,30.33,10.0,Calm,Calm,-,N/A,,Clear,0,2013-04-04 03:55:00
11:15 PM,29.3,14.0,53,30.33,10.0,ESE,3.5,-,N/A,,Clear,120,2013-04-04 04:15:00
11:35 PM,30.4,16.3,56,30.33,10.0,SE,4.6,-,N/A,,Clear,130,2013-04-04 04:35:00
11:55 PM,30.4,17.2,58,30.33,10.0,ESE,4.6,-,N/A,,Clear,120,2013-04-04 04:55:00